Oscoda, MI

5:54 AM EST on November 15, 2019 (GMT -0500)
Oscoda-Wurtsmith

Weather History for KOSC - August, 2019

Change the Weather History Date:

Saturday, August 24, 2019

  Actual Average Record
Temperature  
Mean Temperature 60 °F -  
Max Temperature 71 °F 74 °F 89 °F (1998)
Min Temperature 48 °F 55 °F 46 °F (2003)
Degree Days  
Heating Degree Days 6    
Growing Degree Days 10 (Base 50)    
Moisture  
Dew Point 51 °F    
Average Humidity 75    
Maximum Humidity 100    
Minimum Humidity 50    
Precipitation  
Precipitation 0.00 in - - ()
Sea Level Pressure  
Sea Level Pressure 30.32 in    
Wind  
Wind Speed 4 mph (NE)    
Max Wind Speed 10 mph    
Max Gust Speed 16 mph    
Visibility 10 miles    
Events      
Averages and records for this station are not official NWS values.
T = Trace of Precipitation, MM = Missing Value Source: NWS Daily Summary

Daily Weather History Graph

Daily Weather History Graph

Search for Another Location

Airport or City:

Astronomy

Aug. 24, 2019 Rise Set
Actual Time 6:46 AM EDT 8:24 PM EDT
Civil Twilight 6:15 AM EDT 8:54 PM EDT
Nautical Twilight 5:38 AM EDT 9:32 PM EDT
Astronomical Twilight 4:58 AM EDT 10:11 PM EDT
Moon 12:34 AM EDT (8/24) 3:45 PM EDT (8/24)
Length of Visible Light 14h 38m
Length of Day
13h 37m
Last Quarter, 39% of the Moon is Illuminated
Aug 24
Last Quarter
Aug 30
New
Sep 5
First Quarter
Sep 14
Full
Sep 21
Last Quarter

Hourly Weather History & Observations

Time (EDT) Temp. Dew Point Humidity Pressure Visibility Wind Dir Wind Speed Gust Speed Precip Events Conditions
12:15 AM 52.7 °F 48.6 °F 86% 30.28 in 10.0 mi NNW 3.5 mph - N/A   Clear
12:35 AM 52.0 °F 48.4 °F 88% 30.28 in 10.0 mi NNW 4.6 mph - N/A   Clear
12:59 AM 50.7 °F 49.8 °F 97% 30.28 in 10.0 mi Calm Calm - N/A   Clear
1:17 AM 51.4 °F 50.2 °F 95% 30.28 in 10.0 mi Calm Calm - N/A   Clear
1:35 AM 51.1 °F 50.0 °F 96% 30.29 in 10.0 mi Calm Calm - N/A   Clear
1:36 AM 51.1 °F 50.0 °F 96% 30.29 in 10.0 mi Calm Calm - N/A   Clear
1:55 AM 50.9 °F 50.5 °F 99% 30.29 in 10.0 mi Calm Calm - N/A   Scattered Clouds
2:15 AM 51.3 °F 50.9 °F 99% 30.29 in 10.0 mi Calm Calm - N/A   Mostly Cloudy
2:38 AM 51.3 °F 50.2 °F 96% 30.29 in 10.0 mi West 3.5 mph - N/A   Overcast
2:56 AM 51.8 °F 50.5 °F 95% 30.29 in 10.0 mi NNW 4.6 mph - N/A   Mostly Cloudy
3:15 AM 50.5 °F 50.2 °F 99% 30.30 in 10.0 mi Calm Calm - N/A   Scattered Clouds
3:35 AM 50.4 °F 50.2 °F 99% 30.29 in 10.0 mi Calm Calm - N/A   Clear
3:59 AM 50.2 °F 50.2 °F 100% 30.30 in 10.0 mi Calm Calm - N/A   Clear
4:17 AM 49.1 °F 49.1 °F 100% 30.30 in 10.0 mi NW 3.5 mph - N/A   Clear
4:35 AM 49.3 °F 49.3 °F 100% 30.31 in 10.0 mi WNW 4.6 mph - N/A   Clear
4:55 AM 49.1 °F 49.1 °F 100% 30.31 in 10.0 mi Calm Calm - N/A   Clear
5:15 AM 48.9 °F 48.9 °F 100% 30.31 in 10.0 mi Calm Calm - N/A   Scattered Clouds
5:20 AM 48.7 °F 48.7 °F 100% 30.31 in 10.0 mi Calm Calm - N/A   Scattered Clouds
5:38 AM 48.2 °F 48.2 °F 100% 30.32 in 10.0 mi NW 3.5 mph - N/A   Scattered Clouds
5:56 AM 48.4 °F 48.4 °F 100% 30.33 in 10.0 mi Calm Calm - N/A   Mostly Cloudy
6:15 AM 49.1 °F 49.1 °F 100% 30.33 in 10.0 mi Calm Calm - N/A   Mostly Cloudy
6:35 AM 49.6 °F 49.6 °F 100% 30.33 in 10.0 mi Calm Calm - N/A   Overcast
6:36 AM 49.6 °F 49.6 °F 100% 30.33 in 10.0 mi Calm Calm - N/A   Overcast
6:59 AM 50.2 °F 50.2 °F 100% 30.34 in 10.0 mi Calm Calm - N/A   Overcast
7:17 AM 50.9 °F 50.9 °F 100% 30.34 in 10.0 mi Calm Calm - N/A   Overcast
7:35 AM 52.7 °F 51.3 °F 95% 30.36 in 10.0 mi NNW 3.5 mph - N/A   Overcast
7:36 AM 52.7 °F 51.1 °F 94% 30.36 in 10.0 mi NNW 3.5 mph - N/A   Overcast
7:55 AM 53.6 °F 51.4 °F 92% 30.36 in 10.0 mi NNW 3.5 mph - N/A   Overcast
7:56 AM 53.8 °F 51.3 °F 91% 30.36 in 10.0 mi NNW 3.5 mph - N/A   Overcast
8:15 AM 54.7 °F 52.0 °F 91% 30.37 in 10.0 mi NW 3.5 mph - N/A   Mostly Cloudy
8:20 AM 55.2 °F 51.8 °F 88% 30.37 in 10.0 mi NW 4.6 mph - N/A   Mostly Cloudy
8:38 AM 55.8 °F 51.1 °F 84% 30.37 in 10.0 mi Calm Calm - N/A   Scattered Clouds
8:56 AM 59.2 °F 52.5 °F 79% 30.37 in 10.0 mi NNW 3.5 mph - N/A   Scattered Clouds
9:15 AM 61.7 °F 52.9 °F 73% 30.36 in 10.0 mi Calm Calm - N/A   Clear
9:16 AM 61.7 °F 52.9 °F 73% 30.36 in 10.0 mi Calm Calm - N/A   Clear
9:35 AM 64.8 °F 53.8 °F 68% 30.36 in 10.0 mi North 3.5 mph - N/A   Clear
9:59 AM 66.7 °F 51.1 °F 57% 30.37 in 10.0 mi NNE 3.5 mph - N/A   Clear
10:17 AM 68.0 °F 50.7 °F 54% 30.36 in 10.0 mi NNE 4.6 mph - N/A   Scattered Clouds
10:35 AM 69.1 °F 49.8 °F 50% 30.36 in 10.0 mi NE 8.1 mph - N/A   Scattered Clouds
10:36 AM 69.1 °F 49.8 °F 50% 30.36 in 10.0 mi NE 8.1 mph - N/A   Scattered Clouds
10:55 AM 69.8 °F 50.2 °F 50% 30.36 in 10.0 mi ENE 6.9 mph - N/A   Scattered Clouds
10:56 AM 69.8 °F 50.4 °F 50% 30.36 in 10.0 mi East 6.9 mph - N/A   Scattered Clouds
11:15 AM 69.8 °F 50.2 °F 50% 30.36 in 10.0 mi East 8.1 mph - N/A   Scattered Clouds
11:20 AM 69.1 °F 50.7 °F 52% 30.36 in 10.0 mi ENE 4.6 mph - N/A   Scattered Clouds
11:38 AM 70.0 °F 51.4 °F 52% 30.36 in 10.0 mi ENE 8.1 mph - N/A   Clear
11:56 AM 69.8 °F 51.3 °F 52% 30.36 in 10.0 mi ENE 10.4 mph - N/A   Scattered Clouds
12:15 PM 70.2 °F 51.3 °F 51% 30.35 in 10.0 mi ENE 6.9 mph 16.1 mph N/A   Scattered Clouds
12:35 PM 70.2 °F 52.7 °F 54% 30.34 in 10.0 mi East 9.2 mph - N/A   Clear
12:36 PM 70.3 °F 52.7 °F 53% 30.34 in 10.0 mi ENE 9.2 mph - N/A   Clear
12:58 PM 70.7 °F 52.5 °F 52% 30.34 in 10.0 mi ENE 5.8 mph - N/A   Clear
1:17 PM 70.5 °F 53.6 °F 55% 30.34 in 10.0 mi ENE 8.1 mph - N/A   Clear
1:35 PM 71.1 °F 53.2 °F 53% 30.34 in 10.0 mi East 9.2 mph - N/A   Clear
1:55 PM 71.1 °F 53.2 °F 53% 30.34 in 10.0 mi East 9.2 mph - N/A   Clear
1:56 PM 71.1 °F 53.4 °F 54% 30.34 in 10.0 mi East 8.1 mph - N/A   Clear
2:15 PM 70.5 °F 53.1 °F 54% 30.33 in 10.0 mi ESE 5.8 mph - N/A   Clear
2:38 PM 70.2 °F 53.2 °F 55% 30.33 in 10.0 mi East 6.9 mph - N/A   Clear
2:56 PM 70.9 °F 54.1 °F 55% 30.33 in 10.0 mi East 10.4 mph - N/A   Clear
3:15 PM 70.3 °F 52.9 °F 54% 30.32 in 10.0 mi ENE 8.1 mph - N/A   Clear
3:16 PM 70.3 °F 52.9 °F 54% 30.32 in 10.0 mi ENE 10.4 mph - N/A   Clear
3:35 PM 70.2 °F 52.9 °F 54% 30.32 in 10.0 mi ENE 9.2 mph - N/A   Clear
3:59 PM 70.0 °F 54.3 °F 57% 30.32 in 10.0 mi ENE 9.2 mph - N/A   Clear
4:17 PM 69.6 °F 54.0 °F 57% 30.32 in 10.0 mi ENE 8.1 mph - N/A   Clear
4:35 PM 69.4 °F 53.6 °F 57% 30.31 in 10.0 mi East 9.2 mph - N/A   Clear
4:36 PM 69.4 °F 53.4 °F 57% 30.31 in 10.0 mi East 8.1 mph - N/A   Clear
4:55 PM 68.9 °F 53.1 °F 57% 30.31 in 10.0 mi ESE 5.8 mph - N/A   Clear
4:56 PM 68.9 °F 53.1 °F 57% 30.31 in 10.0 mi ESE 6.9 mph - N/A   Clear
5:15 PM 69.1 °F 53.6 °F 58% 30.31 in 10.0 mi ENE 8.1 mph - N/A   Clear
5:20 PM 68.7 °F 53.6 °F 58% 30.31 in 10.0 mi East 9.2 mph - N/A   Clear
5:38 PM 68.5 °F 54.1 °F 60% 30.31 in 10.0 mi East 8.1 mph - N/A   Clear
5:56 PM 68.2 °F 53.2 °F 59% 30.32 in 10.0 mi ENE 9.2 mph - N/A   Clear
6:15 PM 67.8 °F 52.7 °F 58% 30.31 in 10.0 mi East 8.1 mph - N/A   Clear
6:16 PM 67.8 °F 52.7 °F 58% 30.31 in 10.0 mi East 5.8 mph - N/A   Clear
6:35 PM 67.8 °F 53.4 °F 60% 30.30 in 10.0 mi East 6.9 mph - N/A   Clear
6:36 PM 67.6 °F 53.4 °F 60% 30.30 in 10.0 mi East 9.2 mph - N/A   Clear
6:59 PM 66.9 °F 52.2 °F 59% 30.30 in 10.0 mi ENE 8.1 mph - N/A   Clear
7:17 PM 66.4 °F 52.3 °F 61% 30.29 in 10.0 mi ENE 6.9 mph - N/A   Clear
7:35 PM 65.5 °F 51.1 °F 60% 30.29 in 10.0 mi ENE 5.8 mph - N/A   Clear
7:55 PM 64.2 °F 52.0 °F 64% 30.29 in 10.0 mi NE 4.6 mph - N/A   Clear
7:56 PM 64.2 °F 52.0 °F 64% 30.29 in 10.0 mi ENE 5.8 mph - N/A   Clear
8:15 PM 62.6 °F 50.9 °F 66% 30.30 in 10.0 mi ENE 4.6 mph - N/A   Clear
8:38 PM 62.4 °F 51.6 °F 68% 30.29 in 10.0 mi NE 3.5 mph - N/A   Clear
8:56 PM 61.9 °F 52.0 °F 70% 30.30 in 10.0 mi NE 3.5 mph - N/A   Clear
9:15 PM 58.3 °F 51.4 °F 78% 30.30 in 10.0 mi Calm Calm - N/A   Clear
9:16 PM 58.3 °F 51.3 °F 77% 30.30 in 10.0 mi Calm Calm - N/A   Clear
9:35 PM 56.1 °F 50.7 °F 82% 30.31 in 10.0 mi Calm Calm - N/A   Clear
9:59 PM 54.1 °F 49.3 °F 84% 30.30 in 10.0 mi Calm Calm - N/A   Clear
10:17 PM 53.2 °F 49.8 °F 88% 30.30 in 10.0 mi Calm Calm - N/A   Clear
10:35 PM 53.6 °F 50.5 °F 89% 30.30 in 10.0 mi Calm Calm - N/A   Clear
10:55 PM 53.6 °F 52.0 °F 94% 30.30 in 10.0 mi WNW 3.5 mph - N/A   Clear
10:56 PM 53.4 °F 51.6 °F 94% 30.30 in 10.0 mi WNW 3.5 mph - N/A   Clear
11:15 PM 51.6 °F 50.4 °F 95% 30.30 in 10.0 mi Calm Calm - N/A   Clear
11:38 PM 52.7 °F 51.8 °F 97% 30.29 in 10.0 mi Calm Calm - N/A   Clear
11:56 PM 51.6 °F 50.2 °F 95% 30.29 in 10.0 mi Calm Calm - N/A   Clear